Time,TemperatureF,DewpointF,PressureIn,WindDirection,WindDirectionDegrees,WindSpeedMPH,WindSpeedGustMPH,Humidity,HourlyPrecipIn,Conditions,Clouds,dailyrainin,SoftwareType,DateUTC
2013-04-12 00:00:00,32.1,30.6,29.83,ENE,64,0.0,0.0,94,0.07,,,0.74,VWS V13.01,2013-04-12 04:00:00,
2013-04-12 00:05:00,32.1,30.6,29.84,ENE,64,0.0,0.0,94,0.04,,OVC038,0.01,VWS V13.01,2013-04-12 04:05:00,
2013-04-12 00:10:00,32.1,30.6,29.84,ENE,64,0.0,0.0,94,0.04,,OVC038,0.01,VWS V13.01,2013-04-12 04:10:00,
2013-04-12 00:15:00,32.1,30.6,29.84,ENE,64,0.0,0.0,94,0.04,,OVC038,0.01,VWS V13.01,2013-04-12 04:15:00,
2013-04-12 00:20:00,32.1,30.6,29.83,ENE,64,0.0,0.0,94,0.05,,OVC038,0.02,VWS V13.01,2013-04-12 04:20:00,
2013-04-12 00:25:00,32.1,30.6,29.83,ENE,64,0.0,0.0,94,0.05,,OVC038,0.02,VWS V13.01,2013-04-12 04:25:00,
2013-04-12 00:30:00,32.1,30.6,29.83,ENE,64,0.0,0.0,94,0.05,,OVC038,0.02,VWS V13.01,2013-04-12 04:30:00,
2013-04-12 00:35:00,32.1,30.6,29.83,ENE,64,0.0,0.0,94,0.04,,OVC038,0.02,VWS V13.01,2013-04-12 04:35:00,
2013-04-12 00:40:00,32.1,30.6,29.83,ENE,64,0.0,0.0,94,0.05,,OVC038,0.03,VWS V13.01,2013-04-12 04:40:00,
2013-04-12 00:45:00,32.2,30.7,29.82,ENE,64,0.0,0.0,94,0.06,,OVC038,0.04,VWS V13.01,2013-04-12 04:45:00,
2013-04-12 00:50:00,32.2,30.7,29.81,ENE,64,0.0,0.0,94,0.07,,OVC038,0.05,VWS V13.01,2013-04-12 04:50:00,
2013-04-12 00:55:00,32.2,30.7,29.81,ENE,64,0.0,0.0,94,0.08,,OVC038,0.06,VWS V13.01,2013-04-12 04:55:00,
2013-04-12 01:00:00,32.2,30.7,29.81,ENE,64,0.0,0.0,94,0.09,,OVC032,0.07,VWS V13.01,2013-04-12 05:00:00,
2013-04-12 01:05:00,32.2,30.9,29.82,ENE,64,0.0,0.0,95,0.08,,OVC032,0.08,VWS V13.01,2013-04-12 05:05:00,
2013-04-12 01:10:00,32.2,30.9,29.82,ENE,64,0.0,0.0,95,0.09,,OVC032,0.09,VWS V13.01,2013-04-12 05:10:00,
2013-04-12 01:15:00,32.1,30.8,29.81,ENE,64,0.0,0.0,95,0.10,,OVC032,0.10,VWS V13.01,2013-04-12 05:15:00,
2013-04-12 01:20:00,32.1,30.8,29.81,ENE,64,0.0,0.0,95,0.10,,OVC032,0.11,VWS V13.01,2013-04-12 05:20:00,
2013-04-12 01:25:00,32.1,30.8,29.81,ENE,64,0.0,0.0,95,0.11,,OVC032,0.12,VWS V13.01,2013-04-12 05:25:00,
2013-04-12 01:30:00,32.1,30.8,29.80,ENE,64,0.0,0.0,95,0.12,,OVC032,0.12,VWS V13.01,2013-04-12 05:30:00,
2013-04-12 01:36:00,32.0,30.7,29.79,ENE,64,0.0,0.0,95,0.11,,OVC032,0.13,VWS V13.01,2013-04-12 05:36:00,
2013-04-12 01:41:00,32.0,30.7,29.79,ENE,64,0.0,0.0,95,0.12,,OVC032,0.14,VWS V13.01,2013-04-12 05:41:00,
2013-04-12 01:46:00,32.0,30.7,29.78,ENE,64,0.0,0.0,95,0.13,,OVC032,0.15,VWS V13.01,2013-04-12 05:46:00,
2013-04-12 01:51:00,32.0,30.7,29.79,ENE,64,0.0,0.0,95,0.14,,OVC032,0.16,VWS V13.01,2013-04-12 05:51:00,
2013-04-12 01:56:00,32.0,30.7,29.78,ENE,64,0.0,0.0,95,0.14,,OVC032,0.16,VWS V13.01,2013-04-12 05:56:00,
2013-04-12 02:01:00,31.9,30.6,29.77,ENE,64,0.0,0.0,95,0.15,,OVC030,0.17,VWS V13.01,2013-04-12 06:01:00,
2013-04-12 02:06:00,31.9,30.6,29.77,ENE,64,0.0,0.0,95,0.11,,OVC030,0.18,VWS V13.01,2013-04-12 06:06:00,
2013-04-12 02:11:00,31.9,30.6,29.77,ENE,64,0.0,0.0,95,0.11,,OVC030,0.18,VWS V13.01,2013-04-12 06:11:00,
2013-04-12 02:16:00,31.9,30.9,29.77,ENE,64,0.0,0.0,96,0.12,,OVC030,0.19,VWS V13.01,2013-04-12 06:16:00,
2013-04-12 02:21:00,31.9,30.9,29.76,ENE,64,0.0,0.0,96,0.13,,OVC030,0.20,VWS V13.01,2013-04-12 06:21:00,
2013-04-12 02:26:00,31.7,30.4,29.76,ENE,64,0.0,0.0,95,0.14,,OVC030,0.21,VWS V13.01,2013-04-12 06:26:00,
2013-04-12 02:31:00,31.7,30.4,29.76,ENE,64,0.0,0.0,95,0.10,,OVC030,0.22,VWS V13.01,2013-04-12 06:31:00,
2013-04-12 02:37:00,31.7,30.4,29.75,ENE,64,0.0,0.0,95,0.10,,OVC030,0.22,VWS V13.01,2013-04-12 06:37:00,
2013-04-12 02:42:00,31.7,30.7,29.75,ENE,64,0.0,0.0,96,0.11,,OVC030,0.23,VWS V13.01,2013-04-12 06:42:00,
2013-04-12 02:47:00,31.7,30.7,29.75,ENE,64,0.0,0.0,96,0.12,,OVC030,0.24,VWS V13.01,2013-04-12 06:47:00,
2013-04-12 02:52:00,31.6,30.6,29.75,ENE,64,0.0,0.0,96,0.13,,OVC030,0.25,VWS V13.01,2013-04-12 06:52:00,
2013-04-12 02:57:00,31.7,30.7,29.75,ENE,64,0.0,0.0,96,0.14,,OVC030,0.26,VWS V13.01,2013-04-12 06:57:00,
2013-04-12 03:02:00,31.7,30.7,29.75,ENE,64,0.0,0.0,96,0.10,,OVC026,0.27,VWS V13.01,2013-04-12 07:02:00,
2013-04-12 03:07:00,31.7,30.7,29.74,ENE,64,0.0,0.0,96,0.11,,OVC026,0.28,VWS V13.01,2013-04-12 07:07:00,
2013-04-12 03:12:00,31.6,30.6,29.74,ENE,64,0.0,0.0,96,0.11,,OVC026,0.29,VWS V13.01,2013-04-12 07:12:00,
2013-04-12 03:17:00,31.6,30.6,29.74,ENE,64,0.0,0.0,96,0.13,,OVC026,0.30,VWS V13.01,2013-04-12 07:17:00,
2013-04-12 03:22:00,31.6,30.6,29.74,ENE,64,0.0,0.0,96,0.14,,OVC026,0.31,VWS V13.01,2013-04-12 07:22:00,
2013-04-12 03:27:00,31.6,30.6,29.75,ENE,64,0.0,0.0,96,0.15,,OVC026,0.32,VWS V13.01,2013-04-12 07:27:00,
2013-04-12 03:32:00,31.6,30.6,29.75,ENE,64,0.0,0.0,96,0.12,,OVC026,0.33,VWS V13.01,2013-04-12 07:32:00,
2013-04-12 03:37:00,31.6,30.6,29.75,ENE,64,0.0,0.0,96,0.13,,OVC026,0.34,VWS V13.01,2013-04-12 07:37:00,
2013-04-12 03:42:00,31.7,30.7,29.75,ENE,64,0.0,0.0,96,0.14,,OVC026,0.35,VWS V13.01,2013-04-12 07:42:00,
2013-04-12 03:47:00,31.7,30.7,29.75,ENE,64,0.0,0.0,96,0.15,,OVC026,0.36,VWS V13.01,2013-04-12 07:47:00,
2013-04-12 03:52:00,31.8,30.8,29.75,ENE,64,0.0,0.0,96,0.15,,OVC026,0.36,VWS V13.01,2013-04-12 07:52:00,
2013-04-12 03:57:00,31.9,30.9,29.75,ENE,64,0.0,0.0,96,0.17,,OVC026,0.38,VWS V13.01,2013-04-12 07:57:00,
2013-04-12 04:02:00,31.9,30.9,29.75,ENE,64,0.0,0.0,96,0.12,,,0.39,VWS V13.01,2013-04-12 08:02:00,
2013-04-12 04:07:00,31.9,30.9,29.75,ENE,64,0.0,0.0,96,0.14,,,0.40,VWS V13.01,2013-04-12 08:07:00,
2013-04-12 04:12:00,31.9,30.9,29.74,ENE,64,0.0,0.0,96,0.14,,,0.40,VWS V13.01,2013-04-12 08:12:00,
2013-04-12 04:17:00,31.8,30.8,29.75,ENE,64,0.0,0.0,96,0.15,,,0.41,VWS V13.01,2013-04-12 08:17:00,
2013-04-12 04:22:00,31.8,30.8,29.75,ENE,64,0.0,0.0,96,0.16,,,0.42,VWS V13.01,2013-04-12 08:22:00,
2013-04-12 04:27:00,31.9,30.9,29.75,ENE,64,0.0,0.0,96,0.18,,,0.44,VWS V13.01,2013-04-12 08:27:00,
2013-04-12 04:32:00,31.9,30.9,29.75,ENE,64,0.0,0.0,96,0.12,,,0.44,VWS V13.01,2013-04-12 08:32:00,
2013-04-12 04:37:00,31.9,30.9,29.74,ENE,64,0.0,0.0,96,0.13,,,0.45,VWS V13.01,2013-04-12 08:37:00,
2013-04-12 04:42:00,31.9,30.9,29.74,ENE,64,0.0,0.0,96,0.14,,,0.46,VWS V13.01,2013-04-12 08:42:00,
2013-04-12 04:47:00,31.9,30.9,29.72,ENE,64,0.0,0.0,96,0.15,,,0.47,VWS V13.01,2013-04-12 08:47:00,
2013-04-12 04:52:00,31.9,30.9,29.72,ENE,64,0.0,0.0,96,0.16,,,0.48,VWS V13.01,2013-04-12 08:52:00,
2013-04-12 04:57:00,31.9,30.9,29.71,ENE,64,0.0,0.0,96,0.17,,,0.50,VWS V13.01,2013-04-12 08:57:00,
2013-04-12 05:02:00,32.0,31.0,29.71,ENE,64,0.0,0.0,96,0.12,,,0.50,VWS V13.01,2013-04-12 09:02:00,
2013-04-12 05:07:00,32.0,31.0,29.70,ENE,64,0.0,0.0,96,0.13,,,0.51,VWS V13.01,2013-04-12 09:07:00,
2013-04-12 05:12:00,32.1,31.1,29.69,ENE,64,0.0,0.0,96,0.14,,,0.52,VWS V13.01,2013-04-12 09:12:00,
2013-04-12 05:17:00,32.1,31.4,29.68,ENE,64,0.0,0.0,97,0.15,,,0.53,VWS V13.01,2013-04-12 09:17:00,
2013-04-12 05:22:00,32.2,31.2,29.69,ENE,64,0.0,0.0,96,0.16,,,0.54,VWS V13.01,2013-04-12 09:22:00,
2013-04-12 05:27:00,32.3,31.3,29.69,ENE,64,0.0,0.0,96,0.16,,,0.54,VWS V13.01,2013-04-12 09:27:00,
2013-04-12 05:32:00,32.3,31.3,29.68,ENE,64,0.0,0.0,96,0.11,,,0.55,VWS V13.01,2013-04-12 09:32:00,
2013-04-12 05:37:00,32.4,31.4,29.68,ENE,64,0.0,0.0,96,0.12,,,0.56,VWS V13.01,2013-04-12 09:37:00,
2013-04-12 05:42:00,32.4,31.4,29.69,ENE,64,0.0,0.0,96,0.13,,,0.57,VWS V13.01,2013-04-12 09:42:00,
2013-04-12 05:47:00,32.3,31.3,29.69,ENE,64,0.0,0.0,96,0.14,,,0.58,VWS V13.01,2013-04-12 09:47:00,
2013-04-12 05:52:00,32.3,31.3,29.69,ENE,64,0.0,0.0,96,0.14,,,0.58,VWS V13.01,2013-04-12 09:52:00,
2013-04-12 05:57:00,32.3,31.3,29.68,ENE,64,0.0,0.0,96,0.15,,,0.59,VWS V13.01,2013-04-12 09:57:00,
2013-04-12 06:03:00,32.3,31.3,29.67,ENE,64,0.0,0.0,96,0.09,,,0.59,VWS V13.01,2013-04-12 10:03:00,
2013-04-12 06:08:00,32.3,31.3,29.66,ENE,64,0.0,0.0,96,0.10,,,0.60,VWS V13.01,2013-04-12 10:08:00,
2013-04-12 06:13:00,32.3,31.3,29.66,ENE,64,0.0,0.0,96,0.10,,,0.60,VWS V13.01,2013-04-12 10:13:00,
2013-04-12 06:18:00,32.3,31.3,29.66,ENE,64,0.0,0.0,96,0.11,,,0.61,VWS V13.01,2013-04-12 10:18:00,
2013-04-12 06:23:00,32.3,31.3,29.67,ENE,64,0.0,0.0,96,0.11,,,0.61,VWS V13.01,2013-04-12 10:23:00,
2013-04-12 06:28:00,32.3,31.3,29.68,ENE,64,0.0,0.0,96,0.12,,,0.62,VWS V13.01,2013-04-12 10:28:00,
2013-04-12 06:33:00,32.3,31.3,29.67,ENE,64,0.0,0.0,96,0.07,,,0.62,VWS V13.01,2013-04-12 10:33:00,
2013-04-12 06:38:00,32.3,31.3,29.67,ENE,64,0.0,0.0,96,0.07,,,0.63,VWS V13.01,2013-04-12 10:38:00,
2013-04-12 06:43:00,32.3,31.3,29.67,ENE,64,0.0,0.0,96,0.08,,,0.63,VWS V13.01,2013-04-12 10:43:00,
2013-04-12 06:48:00,32.4,31.4,29.66,ENE,64,0.0,0.0,96,0.08,,,0.63,VWS V13.01,2013-04-12 10:48:00,
2013-04-12 06:53:00,32.4,31.4,29.66,ENE,64,0.0,0.0,96,0.09,,,0.64,VWS V13.01,2013-04-12 10:53:00,
2013-04-12 06:58:00,32.4,31.4,29.65,ENE,64,0.0,0.0,96,0.09,,,0.64,VWS V13.01,2013-04-12 10:58:00,
2013-04-12 07:03:00,32.4,31.4,29.64,ENE,64,0.0,0.0,96,0.05,,,0.64,VWS V13.01,2013-04-12 11:03:00,
2013-04-12 07:08:00,32.4,31.4,29.64,ENE,64,0.0,0.0,96,0.06,,,0.65,VWS V13.01,2013-04-12 11:08:00,
2013-04-12 07:13:00,32.5,31.5,29.64,ENE,64,0.0,0.0,96,0.06,,,0.65,VWS V13.01,2013-04-12 11:13:00,
2013-04-12 07:18:00,32.5,31.5,29.63,ENE,64,0.0,0.0,96,0.06,,,0.65,VWS V13.01,2013-04-12 11:18:00,
2013-04-12 07:23:00,32.5,31.5,29.62,ENE,64,0.0,0.0,96,0.06,,,0.65,VWS V13.01,2013-04-12 11:23:00,
2013-04-12 07:28:00,32.5,31.5,29.63,ENE,64,0.0,0.0,96,0.07,,,0.66,VWS V13.01,2013-04-12 11:28:00,
2013-04-12 07:33:00,32.5,31.5,29.63,ENE,64,0.0,0.0,96,0.04,,,0.66,VWS V13.01,2013-04-12 11:33:00,
2013-04-12 07:38:00,32.5,31.5,29.63,ENE,64,0.0,0.0,96,0.04,,,0.66,VWS V13.01,2013-04-12 11:38:00,
2013-04-12 07:43:00,32.5,31.5,29.62,ENE,64,0.0,0.0,96,0.04,,,0.66,VWS V13.01,2013-04-12 11:43:00,
2013-04-12 07:48:00,32.4,31.4,29.62,ENE,64,0.0,0.0,96,0.04,,,0.66,VWS V13.01,2013-04-12 11:48:00,
2013-04-12 07:53:00,32.4,31.4,29.61,ENE,64,0.0,0.0,96,0.04,,,0.66,VWS V13.01,2013-04-12 11:53:00,
2013-04-12 07:58:00,32.4,31.4,29.61,ENE,64,0.0,0.0,96,0.04,,,0.66,VWS V13.01,2013-04-12 11:58:00,
2013-04-12 08:03:00,32.4,31.4,29.61,ENE,64,0.0,0.0,96,0.02,,,0.66,VWS V13.01,2013-04-12 12:03:00,
2013-04-12 08:08:00,32.3,31.3,29.61,ENE,64,0.0,0.0,96,0.02,,,0.66,VWS V13.01,2013-04-12 12:08:00,
2013-04-12 08:13:00,32.4,31.4,29.62,ENE,64,0.0,0.0,96,0.02,,,0.66,VWS V13.01,2013-04-12 12:13:00,
2013-04-12 08:18:00,32.4,31.4,29.62,ENE,64,0.0,0.0,96,0.02,,,0.66,VWS V13.01,2013-04-12 12:18:00,
2013-04-12 08:23:00,32.5,31.5,29.62,ENE,64,0.0,0.0,96,0.02,,,0.66,VWS V13.01,2013-04-12 12:23:00,
2013-04-12 08:28:00,32.5,31.5,29.62,ENE,64,0.0,0.0,96,0.02,,,0.66,VWS V13.01,2013-04-12 12:28:00,
2013-04-12 08:33:00,32.5,31.5,29.62,ENE,64,0.0,0.0,96,0.00,,,0.66,VWS V13.01,2013-04-12 12:33:00,
2013-04-12 08:38:00,32.5,31.5,29.62,ENE,64,0.0,0.0,96,0.00,,,0.66,VWS V13.01,2013-04-12 12:38:00,
2013-04-12 08:43:00,32.6,31.6,29.62,ENE,64,0.0,0.0,96,0.00,,,0.66,VWS V13.01,2013-04-12 12:43:00,
2013-04-12 08:48:00,32.6,31.6,29.63,ENE,64,0.0,0.0,96,0.00,,,0.66,VWS V13.01,2013-04-12 12:48:00,
2013-04-12 08:54:00,32.7,31.7,29.63,ENE,64,0.0,0.0,96,0.00,,,0.66,VWS V13.01,2013-04-12 12:54:00,
2013-04-12 08:59:00,32.7,31.7,29.63,ENE,64,0.0,0.0,96,0.00,,,0.66,VWS V13.01,2013-04-12 12:59:00,
2013-04-12 09:04:00,32.8,31.8,29.63,ENE,64,0.0,0.0,96,0.00,,,0.66,VWS V13.01,2013-04-12 13:04:00,
2013-04-12 09:09:00,32.8,31.8,29.62,ENE,64,0.0,0.0,96,0.00,,,0.66,VWS V13.01,2013-04-12 13:09:00,
2013-04-12 09:14:00,32.8,31.8,29.62,ENE,64,0.0,0.0,96,0.00,,,0.66,VWS V13.01,2013-04-12 13:14:00,
2013-04-12 09:19:00,32.8,31.8,29.62,ENE,64,0.0,0.0,96,0.00,,,0.66,VWS V13.01,2013-04-12 13:19:00,
2013-04-12 09:24:00,32.8,31.8,29.61,ENE,64,0.0,0.0,96,0.00,,,0.66,VWS V13.01,2013-04-12 13:24:00,
2013-04-12 09:29:00,32.9,31.9,29.62,ENE,64,0.0,0.0,96,0.00,,,0.66,VWS V13.01,2013-04-12 13:29:00,
2013-04-12 09:34:00,32.9,31.9,29.62,ENE,65,0.0,0.0,96,0.00,,,0.66,VWS V13.01,2013-04-12 13:34:00,
2013-04-12 09:39:00,32.9,31.9,29.62,ENE,65,0.0,0.0,96,0.00,,,0.66,VWS V13.01,2013-04-12 13:39:00,
2013-04-12 09:44:00,33.0,32.0,29.61,ENE,64,0.0,0.0,96,0.00,,,0.66,VWS V13.01,2013-04-12 13:44:00,
2013-04-12 09:49:00,33.0,32.0,29.61,ENE,64,0.0,0.0,96,0.00,,,0.66,VWS V13.01,2013-04-12 13:49:00,
2013-04-12 09:54:00,33.0,32.0,29.61,ENE,64,0.0,0.0,96,0.00,,,0.66,VWS V13.01,2013-04-12 13:54:00,
2013-04-12 09:59:00,32.9,31.9,29.61,ENE,64,0.0,0.0,96,0.00,,,0.66,VWS V13.01,2013-04-12 13:59:00,
2013-04-12 10:04:00,32.9,31.9,29.61,ENE,64,0.0,0.0,96,0.00,,,0.66,VWS V13.01,2013-04-12 14:04:00,
2013-04-12 10:09:00,33.2,32.2,29.61,NE,49,0.0,9.0,96,0.28,,,0.94,VWS V13.01,2013-04-12 14:09:00,
2013-04-12 10:14:00,33.3,32.3,29.61,East,82,5.0,5.0,96,0.28,,,0.94,VWS V13.01,2013-04-12 14:14:00,
2013-04-12 10:19:00,33.1,32.1,29.61,East,84,5.0,5.0,96,0.28,,,0.94,VWS V13.01,2013-04-12 14:19:00,
2013-04-12 10:24:00,33.0,32.0,29.61,ENE,63,2.0,7.0,96,0.28,,,0.94,VWS V13.01,2013-04-12 14:24:00,
2013-04-12 10:29:00,33.0,32.0,29.61,East,82,1.0,7.0,96,0.28,,,0.94,VWS V13.01,2013-04-12 14:29:00,
2013-04-12 10:34:00,33.0,32.0,29.62,ENE,74,2.0,6.0,96,0.28,,,0.94,VWS V13.01,2013-04-12 14:34:00,
2013-04-12 10:39:00,33.0,32.0,29.62,East,82,2.0,4.0,96,0.28,,,0.94,VWS V13.01,2013-04-12 14:39:00,
2013-04-12 10:44:00,33.0,32.0,29.62,NE,55,0.0,5.0,96,0.28,,,0.94,VWS V13.01,2013-04-12 14:44:00,
2013-04-12 10:49:00,33.0,32.0,29.62,East,86,1.0,9.0,96,0.28,,,0.94,VWS V13.01,2013-04-12 14:49:00,
2013-04-12 10:54:00,33.0,32.0,29.62,ENE,71,3.0,8.0,96,0.28,,,0.94,VWS V13.01,2013-04-12 14:54:00,
2013-04-12 10:59:00,33.0,32.0,29.62,ENE,78,2.0,7.0,96,0.28,,,0.94,VWS V13.01,2013-04-12 14:59:00,
2013-04-12 11:04:00,33.2,32.2,29.62,ENE,60,2.0,4.0,96,0.28,,,0.94,VWS V13.01,2013-04-12 15:04:00,
2013-04-12 11:09:00,33.3,32.3,29.62,ENE,67,0.0,3.0,96,0.28,,,0.94,VWS V13.01,2013-04-12 15:09:00,
2013-04-12 11:14:00,33.5,32.5,29.63,ENE,63,0.0,3.0,96,0.28,,,0.94,VWS V13.01,2013-04-12 15:14:00,
2013-04-12 11:19:00,33.6,32.6,29.63,East,91,1.0,3.0,96,0.28,,,0.94,VWS V13.01,2013-04-12 15:19:00,
2013-04-12 11:24:00,33.7,32.7,29.63,East,91,0.0,1.0,96,0.28,,,0.94,VWS V13.01,2013-04-12 15:24:00,
2013-04-12 11:29:00,33.8,32.8,29.63,East,91,1.0,2.0,96,0.28,,,0.94,VWS V13.01,2013-04-12 15:29:00,
2013-04-12 11:34:00,34.0,33.0,29.63,East,91,0.0,1.0,96,0.00,,,0.94,VWS V13.01,2013-04-12 15:34:00,
2013-04-12 11:39:00,34.2,33.2,29.63,East,91,0.0,1.0,96,0.00,,,0.94,VWS V13.01,2013-04-12 15:39:00,
2013-04-12 11:44:00,34.3,33.3,29.63,East,91,0.0,2.0,96,0.00,,,0.94,VWS V13.01,2013-04-12 15:44:00,
2013-04-12 11:49:00,34.4,33.1,29.63,East,91,0.0,1.0,95,0.00,,,0.94,VWS V13.01,2013-04-12 15:49:00,
2013-04-12 11:54:00,34.5,33.2,29.63,ENE,68,0.0,3.0,95,0.00,,,0.94,VWS V13.01,2013-04-12 15:54:00,
2013-04-12 11:59:00,34.6,33.3,29.63,ENE,67,0.0,2.0,95,0.00,,,0.94,VWS V13.01,2013-04-12 15:59:00,
2013-04-12 12:04:00,34.7,33.4,29.63,ENE,67,1.0,2.0,95,0.00,,,0.94,VWS V13.01,2013-04-12 16:04:00,
2013-04-12 12:09:00,34.8,33.5,29.63,ENE,67,0.0,1.0,95,0.00,,,0.94,VWS V13.01,2013-04-12 16:09:00,
2013-04-12 12:14:00,35.0,33.7,29.63,ENE,67,0.0,0.0,95,0.00,,,0.94,VWS V13.01,2013-04-12 16:14:00,
2013-04-12 12:19:00,35.4,34.4,29.64,ENE,67,0.0,0.0,96,0.00,,,0.94,VWS V13.01,2013-04-12 16:19:00,
2013-04-12 12:24:00,35.7,34.4,29.64,ENE,67,0.0,1.0,95,0.00,,,0.94,VWS V13.01,2013-04-12 16:24:00,
2013-04-12 12:29:00,35.8,34.5,29.64,ENE,67,0.0,1.0,95,0.00,,,0.94,VWS V13.01,2013-04-12 16:29:00,
2013-04-12 12:34:00,35.8,34.2,29.64,ENE,67,0.0,0.0,94,0.00,,,0.94,VWS V13.01,2013-04-12 16:34:00,
2013-04-12 12:39:00,36.0,34.7,29.63,ENE,67,0.0,0.0,95,0.00,,,0.94,VWS V13.01,2013-04-12 16:39:00,
2013-04-12 12:44:00,36.3,35.0,29.63,ENE,67,0.0,0.0,95,0.00,,,0.94,VWS V13.01,2013-04-12 16:44:00,
2013-04-12 12:49:00,36.4,34.8,29.64,ENE,67,0.0,0.0,94,0.00,,,0.94,VWS V13.01,2013-04-12 16:49:00,
2013-04-12 12:54:00,36.5,34.9,29.64,ENE,67,0.0,0.0,94,0.00,,,0.94,VWS V13.01,2013-04-12 16:54:00,
2013-04-12 12:59:00,36.5,34.9,29.64,ENE,67,0.0,0.0,94,0.00,,,0.94,VWS V13.01,2013-04-12 16:59:00,
2013-04-12 13:05:00,36.6,34.8,29.64,ENE,67,0.0,0.0,93,0.00,,,0.94,VWS V13.01,2013-04-12 17:05:00,
2013-04-12 13:10:00,36.4,34.6,29.64,ENE,67,0.0,0.0,93,0.00,,,0.94,VWS V13.01,2013-04-12 17:10:00,
2013-04-12 13:15:00,36.4,34.6,29.64,ENE,67,0.0,0.0,93,0.00,,,0.94,VWS V13.01,2013-04-12 17:15:00,
2013-04-12 13:20:00,36.3,34.5,29.64,ENE,67,0.0,0.0,93,0.00,,,0.94,VWS V13.01,2013-04-12 17:20:00,
2013-04-12 13:25:00,36.1,34.3,29.64,ENE,67,0.0,2.0,93,0.00,,,0.94,VWS V13.01,2013-04-12 17:25:00,
2013-04-12 13:30:00,35.9,34.1,29.64,ENE,67,0.0,1.0,93,0.00,,,0.94,VWS V13.01,2013-04-12 17:30:00,
2013-04-12 13:35:00,35.8,34.0,29.64,ENE,67,0.0,1.0,93,0.00,,,0.94,VWS V13.01,2013-04-12 17:35:00,
2013-04-12 13:40:00,35.5,34.0,29.64,ENE,67,0.0,1.0,94,0.00,,,0.94,VWS V13.01,2013-04-12 17:40:00,
2013-04-12 13:45:00,35.4,33.8,29.63,ENE,67,1.0,1.0,94,0.00,,,0.94,VWS V13.01,2013-04-12 17:45:00,
2013-04-12 13:50:00,35.5,34.0,29.63,NNE,19,0.0,3.0,94,0.00,,,0.94,VWS V13.01,2013-04-12 17:50:00,
2013-04-12 13:55:00,35.4,33.8,29.63,NNE,19,1.0,2.0,94,0.00,,,0.94,VWS V13.01,2013-04-12 17:55:00,
2013-04-12 14:00:00,35.4,33.8,29.63,North,5,0.0,3.0,94,0.00,,,0.94,VWS V13.01,2013-04-12 18:00:00,
2013-04-12 14:05:00,35.5,34.0,29.63,North,5,0.0,2.0,94,0.00,,,0.94,VWS V13.01,2013-04-12 18:05:00,
2013-04-12 14:10:00,35.5,34.2,29.63,North,5,0.0,1.0,95,0.00,,,0.94,VWS V13.01,2013-04-12 18:10:00,
2013-04-12 14:15:00,35.6,34.3,29.63,North,5,1.0,1.0,95,0.00,,,0.94,VWS V13.01,2013-04-12 18:15:00,
2013-04-12 14:20:00,35.5,34.2,29.64,North,5,0.0,1.0,95,0.00,,,0.94,VWS V13.01,2013-04-12 18:20:00,
2013-04-12 14:25:00,35.5,34.2,29.63,North,5,0.0,1.0,95,0.00,,,0.94,VWS V13.01,2013-04-12 18:25:00,
2013-04-12 15:26:00,34.8,33.5,29.66,SW,219,3.0,4.0,95,0.00,,,0.94,VWS V13.01,2013-04-12 19:26:00,
2013-04-12 15:27:00,34.8,33.5,29.66,SW,219,2.0,4.0,95,0.00,,,0.94,VWS V13.01,2013-04-12 19:27:00,
2013-04-12 15:32:00,34.9,33.6,29.66,SW,219,2.0,3.0,95,0.00,,,0.94,VWS V13.01,2013-04-12 19:32:00,
2013-04-12 15:37:00,34.9,33.6,29.66,SW,219,3.0,3.0,95,0.00,,,0.94,VWS V13.01,2013-04-12 19:37:00,
2013-04-12 15:42:00,34.8,33.5,29.66,SW,220,2.0,4.0,95,0.00,,,0.94,VWS V13.01,2013-04-12 19:42:00,
2013-04-12 15:47:00,34.9,33.6,29.66,SW,220,2.0,3.0,95,0.00,,,0.94,VWS V13.01,2013-04-12 19:47:00,
2013-04-12 15:52:00,35.0,33.7,29.66,SW,220,3.0,3.0,95,0.00,,,0.94,VWS V13.01,2013-04-12 19:52:00,
2013-04-12 15:57:00,35.0,33.7,29.65,SW,220,0.0,3.0,95,0.00,,,0.94,VWS V13.01,2013-04-12 19:57:00,
2013-04-12 16:02:00,35.2,33.9,29.65,SW,220,1.0,2.0,95,0.00,,,0.94,VWS V13.01,2013-04-12 20:02:00,
2013-04-12 16:08:00,35.3,34.0,29.66,SSW,207,3.0,3.0,95,0.00,,,0.94,VWS V13.01,2013-04-12 20:08:00,
2013-04-12 16:13:00,35.3,34.0,29.66,SSW,207,1.0,3.0,95,0.00,,,0.94,VWS V13.01,2013-04-12 20:13:00,
2013-04-12 16:18:00,35.5,34.2,29.66,SSW,207,1.0,3.0,95,0.00,,,0.94,VWS V13.01,2013-04-12 20:18:00,
2013-04-12 16:23:00,35.5,34.2,29.66,SSW,207,2.0,4.0,95,0.00,,,0.94,VWS V13.01,2013-04-12 20:23:00,
2013-04-12 16:28:00,35.5,34.2,29.66,SSW,207,2.0,3.0,95,0.00,,,0.94,VWS V13.01,2013-04-12 20:28:00,
2013-04-12 16:33:00,35.5,34.2,29.66,SSW,200,3.0,4.0,95,0.00,,,0.94,VWS V13.01,2013-04-12 20:33:00,
2013-04-12 16:38:00,35.5,34.2,29.66,South,181,3.0,3.0,95,0.00,,,0.94,VWS V13.01,2013-04-12 20:38:00,
2013-04-12 16:43:00,35.5,34.2,29.66,South,181,2.0,3.0,95,0.00,,,0.94,VWS V13.01,2013-04-12 20:43:00,
2013-04-12 16:48:00,35.6,34.3,29.66,South,181,2.0,4.0,95,0.00,,,0.94,VWS V13.01,2013-04-12 20:48:00,
2013-04-12 16:53:00,35.6,34.3,29.66,South,181,1.0,4.0,95,0.00,,,0.94,VWS V13.01,2013-04-12 20:53:00,
2013-04-12 16:58:00,35.6,34.3,29.66,South,181,3.0,3.0,95,0.00,,,0.94,VWS V13.01,2013-04-12 20:58:00,
2013-04-12 17:03:00,35.7,34.4,29.66,South,181,3.0,4.0,95,0.00,,,0.94,VWS V13.01,2013-04-12 21:03:00,
2013-04-12 17:08:00,35.7,34.4,29.66,SSE,161,4.0,4.0,95,0.00,,,0.94,VWS V13.01,2013-04-12 21:08:00,
2013-04-12 17:13:00,35.6,34.3,29.67,SSE,163,3.0,5.0,95,0.00,,,0.94,VWS V13.01,2013-04-12 21:13:00,
2013-04-12 17:18:00,35.6,34.3,29.67,SSE,162,3.0,4.0,95,0.00,,,0.94,VWS V13.01,2013-04-12 21:18:00,
2013-04-12 17:23:00,35.6,34.3,29.67,SSE,163,4.0,5.0,95,0.00,,,0.94,VWS V13.01,2013-04-12 21:23:00,
2013-04-12 17:28:00,35.6,34.3,29.67,SSE,162,3.0,5.0,95,0.00,,,0.94,VWS V13.01,2013-04-12 21:28:00,
2013-04-12 17:33:00,35.7,34.4,29.67,SSE,162,2.0,4.0,95,0.00,,,0.94,VWS V13.01,2013-04-12 21:33:00,
2013-04-12 17:38:00,35.8,34.5,29.67,SSE,163,2.0,3.0,95,0.00,,,0.94,VWS V13.01,2013-04-12 21:38:00,
2013-04-12 17:43:00,35.9,34.6,29.67,SSE,163,2.0,3.0,95,0.00,,,0.94,VWS V13.01,2013-04-12 21:43:00,
2013-04-12 17:48:00,36.0,34.7,29.67,SSE,163,3.0,3.0,95,0.00,,,0.94,VWS V13.01,2013-04-12 21:48:00,
2013-04-12 17:53:00,36.2,34.9,29.68,SSW,200,3.0,4.0,95,0.00,,,0.94,VWS V13.01,2013-04-12 21:53:00,
2013-04-12 17:58:00,36.5,34.9,29.68,SSW,209,4.0,5.0,94,0.00,,,0.94,VWS V13.01,2013-04-12 21:58:00,
2013-04-12 18:03:00,36.6,35.0,29.68,SSW,213,4.0,5.0,94,0.00,,,0.94,VWS V13.01,2013-04-12 22:03:00,
2013-04-12 18:08:00,36.6,35.0,29.68,SW,227,3.0,5.0,94,0.00,,,0.94,VWS V13.01,2013-04-12 22:08:00,
2013-04-12 18:13:00,36.5,34.7,29.68,SW,227,2.0,3.0,93,0.00,,,0.94,VWS V13.01,2013-04-12 22:13:00,
2013-04-12 18:18:00,36.6,34.8,29.68,SW,227,2.0,4.0,93,0.00,,,0.94,VWS V13.01,2013-04-12 22:18:00,
2013-04-12 18:23:00,36.5,34.7,29.68,SW,227,2.0,3.0,93,0.00,,,0.94,VWS V13.01,2013-04-12 22:23:00,
2013-04-12 18:28:00,36.6,34.8,29.69,SW,227,2.0,3.0,93,0.00,,,0.94,VWS V13.01,2013-04-12 22:28:00,
2013-04-12 18:33:00,36.5,34.7,29.69,SW,227,1.0,3.0,93,0.00,,,0.94,VWS V13.01,2013-04-12 22:33:00,
2013-04-12 18:38:00,36.6,35.0,29.69,SW,227,2.0,2.0,94,0.00,,,0.94,VWS V13.01,2013-04-12 22:38:00,
2013-04-12 18:43:00,36.6,35.0,29.69,SW,227,2.0,3.0,94,0.00,,,0.94,VWS V13.01,2013-04-12 22:43:00,
2013-04-12 18:48:00,36.7,35.1,29.69,SW,227,2.0,3.0,94,0.00,,,0.94,VWS V13.01,2013-04-12 22:48:00,
2013-04-12 18:53:00,36.8,35.2,29.69,SW,227,1.0,2.0,94,0.00,,,0.94,VWS V13.01,2013-04-12 22:53:00,
2013-04-12 18:58:00,36.8,35.2,29.69,SW,227,1.0,3.0,94,0.00,,,0.94,VWS V13.01,2013-04-12 22:58:00,
2013-04-12 19:03:00,36.8,35.2,29.69,SW,227,2.0,3.0,94,0.00,,,0.94,VWS V13.01,2013-04-12 23:03:00,
2013-04-12 19:08:00,36.9,35.3,29.69,SW,227,2.0,3.0,94,0.00,,,0.94,VWS V13.01,2013-04-12 23:08:00,
2013-04-12 19:13:00,36.9,35.3,29.69,SW,217,3.0,4.0,94,0.00,,,0.94,VWS V13.01,2013-04-12 23:13:00,
2013-04-12 19:18:00,36.9,35.3,29.69,SSW,213,3.0,3.0,94,0.00,,,0.94,VWS V13.01,2013-04-12 23:18:00,
2013-04-12 19:23:00,36.9,35.3,29.69,SSW,213,3.0,4.0,94,0.00,,,0.94,VWS V13.01,2013-04-12 23:23:00,
2013-04-12 19:28:00,36.9,35.3,29.69,SSW,207,3.0,4.0,94,0.00,,,0.94,VWS V13.01,2013-04-12 23:28:00,
2013-04-12 19:34:00,36.9,35.3,29.69,SSW,202,3.0,4.0,94,0.00,,,0.94,VWS V13.01,2013-04-12 23:34:00,
2013-04-12 19:39:00,36.9,35.3,29.69,SSW,198,3.0,4.0,94,0.00,,,0.94,VWS V13.01,2013-04-12 23:39:00,
2013-04-12 19:44:00,36.9,35.3,29.69,SSW,198,2.0,4.0,94,0.00,,,0.94,VWS V13.01,2013-04-12 23:44:00,
2013-04-12 19:49:00,36.9,35.6,29.69,South,186,2.0,4.0,95,0.00,,,0.94,VWS V13.01,2013-04-12 23:49:00,
2013-04-12 19:54:00,36.8,35.5,29.69,South,186,3.0,4.0,95,0.00,,,0.94,VWS V13.01,2013-04-12 23:54:00,
2013-04-12 19:59:00,36.8,35.5,29.69,South,186,4.0,5.0,95,0.00,,,0.94,VWS V13.01,2013-04-12 23:59:00,
2013-04-12 20:04:00,36.8,35.5,29.69,South,185,4.0,5.0,95,0.00,,,0.94,VWS V13.01,2013-04-13 00:04:00,
2013-04-12 20:09:00,36.6,35.3,29.70,South,175,5.0,7.0,95,0.00,,,0.94,VWS V13.01,2013-04-13 00:09:00,
2013-04-12 20:14:00,36.4,35.1,29.69,South,174,5.0,7.0,95,0.00,,,0.94,VWS V13.01,2013-04-13 00:14:00,
2013-04-12 20:19:00,36.3,35.3,29.69,South,178,5.0,7.0,96,0.00,,,0.94,VWS V13.01,2013-04-13 00:19:00,
2013-04-12 20:24:00,36.2,35.2,29.69,South,173,5.0,7.0,96,0.00,,,0.94,VWS V13.01,2013-04-13 00:24:00,
2013-04-12 20:29:00,36.2,35.2,29.70,South,182,7.0,8.0,96,0.00,,,0.94,VWS V13.01,2013-04-13 00:29:00,
2013-04-12 20:34:00,36.2,35.2,29.70,South,176,7.0,8.0,96,0.00,,,0.94,VWS V13.01,2013-04-13 00:34:00,
2013-04-12 20:39:00,36.2,35.2,29.70,South,181,6.0,9.0,96,0.00,,,0.94,VWS V13.01,2013-04-13 00:39:00,
2013-04-12 20:44:00,36.2,35.4,29.70,South,179,5.0,8.0,97,0.00,,,0.94,VWS V13.01,2013-04-13 00:44:00,
2013-04-12 20:49:00,36.2,35.4,29.70,South,180,5.0,9.0,97,0.00,,,0.94,VWS V13.01,2013-04-13 00:49:00,
2013-04-12 20:54:00,36.2,35.4,29.70,South,183,6.0,8.0,97,0.00,,,0.94,VWS V13.01,2013-04-13 00:54:00,
2013-04-12 20:59:00,36.3,35.5,29.70,South,185,5.0,7.0,97,0.00,,,0.94,VWS V13.01,2013-04-13 00:59:00,
2013-04-12 21:04:00,36.3,35.5,29.70,South,184,6.0,6.0,97,0.00,,,0.94,VWS V13.01,2013-04-13 01:04:00,
2013-04-12 21:09:00,36.3,35.5,29.70,South,184,4.0,6.0,97,0.00,,,0.94,VWS V13.01,2013-04-13 01:09:00,
2013-04-12 21:14:00,36.3,35.5,29.70,South,184,3.0,6.0,97,0.00,,,0.94,VWS V13.01,2013-04-13 01:14:00,
2013-04-12 21:19:00,36.3,35.5,29.70,South,183,5.0,6.0,97,0.00,,,0.94,VWS V13.01,2013-04-13 01:19:00,
2013-04-12 21:24:00,36.3,35.5,29.70,South,183,6.0,6.0,97,0.00,,,0.94,VWS V13.01,2013-04-13 01:24:00,
2013-04-12 21:29:00,36.4,35.6,29.70,South,184,6.0,6.0,97,0.00,,,0.94,VWS V13.01,2013-04-13 01:29:00,
2013-04-12 21:34:00,36.4,35.6,29.70,SSW,193,5.0,7.0,97,0.00,,,0.94,VWS V13.01,2013-04-13 01:34:00,
2013-04-12 21:39:00,36.6,35.8,29.70,SSW,213,7.0,8.0,97,0.00,,,0.94,VWS V13.01,2013-04-13 01:39:00,
2013-04-12 21:44:00,36.7,35.9,29.70,SW,217,7.0,8.0,97,0.00,,,0.94,VWS V13.01,2013-04-13 01:44:00,
2013-04-12 21:49:00,36.8,36.0,29.70,SW,221,6.0,8.0,97,0.00,,,0.94,VWS V13.01,2013-04-13 01:49:00,
2013-04-12 21:54:00,36.8,36.0,29.70,SW,227,6.0,9.0,97,0.00,,,0.94,VWS V13.01,2013-04-13 01:54:00,
2013-04-12 21:59:00,36.9,36.1,29.70,SW,221,7.0,9.0,97,0.00,,,0.94,VWS V13.01,2013-04-13 01:59:00,
2013-04-12 22:04:00,36.9,36.1,29.70,SW,235,10.0,10.0,97,0.00,,,0.94,VWS V13.01,2013-04-13 02:04:00,
2013-04-12 22:09:00,37.0,36.2,29.70,SW,230,7.0,9.0,97,0.00,,,0.94,VWS V13.01,2013-04-13 02:09:00,
2013-04-12 22:14:00,37.0,36.2,29.70,SW,230,7.0,9.0,97,0.00,,,0.94,VWS V13.01,2013-04-13 02:14:00,
2013-04-12 22:19:00,37.0,36.0,29.71,SW,233,9.0,10.0,96,0.00,,,0.94,VWS V13.01,2013-04-13 02:19:00,
2013-04-12 22:24:00,37.0,36.0,29.71,WSW,251,6.0,10.0,96,0.00,,,0.94,VWS V13.01,2013-04-13 02:24:00,
2013-04-12 22:29:00,36.9,35.9,29.70,WSW,249,5.0,9.0,96,0.00,,,0.94,VWS V13.01,2013-04-13 02:29:00,
2013-04-12 22:34:00,36.9,35.6,29.70,WSW,243,5.0,9.0,95,0.00,,,0.94,VWS V13.01,2013-04-13 02:34:00,
2013-04-12 22:39:00,36.8,35.5,29.71,WSW,243,7.0,9.0,95,0.00,,,0.94,VWS V13.01,2013-04-13 02:39:00,
2013-04-12 22:44:00,36.8,35.5,29.71,SW,235,10.0,10.0,95,0.00,,,0.94,VWS V13.01,2013-04-13 02:44:00,
2013-04-12 22:49:00,36.9,35.6,29.71,WSW,242,10.0,11.0,95,0.00,,,0.94,VWS V13.01,2013-04-13 02:49:00,
2013-04-12 22:54:00,36.9,35.3,29.71,WSW,248,7.0,12.0,94,0.00,,,0.94,VWS V13.01,2013-04-13 02:54:00,
2013-04-12 22:59:00,36.8,35.2,29.71,WSW,249,7.0,11.0,94,0.00,,,0.94,VWS V13.01,2013-04-13 02:59:00,
2013-04-12 23:04:00,36.7,35.1,29.71,WSW,247,8.0,10.0,94,0.00,,,0.94,VWS V13.01,2013-04-13 03:04:00,
2013-04-12 23:09:00,36.7,35.1,29.71,SW,231,6.0,10.0,94,0.00,,,0.94,VWS V13.01,2013-04-13 03:09:00,
2013-04-12 23:14:00,36.8,35.2,29.71,WSW,243,9.0,9.0,94,0.00,,,0.94,VWS V13.01,2013-04-13 03:14:00,
2013-04-12 23:19:00,36.7,35.1,29.71,WSW,248,10.0,11.0,94,0.00,,,0.94,VWS V13.01,2013-04-13 03:19:00,
2013-04-12 23:24:00,36.7,35.1,29.71,SW,236,9.0,11.0,94,0.00,,,0.94,VWS V13.01,2013-04-13 03:24:00,
2013-04-12 23:29:00,36.6,35.0,29.71,SW,232,8.0,12.0,94,0.00,,,0.94,VWS V13.01,2013-04-13 03:29:00,
2013-04-12 23:34:00,36.6,35.0,29.71,SW,229,7.0,10.0,94,0.00,,,0.94,VWS V13.01,2013-04-13 03:34:00,
2013-04-12 23:39:00,36.5,34.7,29.71,WNW,283,5.0,11.0,93,0.00,,,0.94,VWS V13.01,2013-04-13 03:39:00,
2013-04-12 23:44:00,36.5,34.7,29.71,WSW,243,7.0,11.0,93,0.00,,,0.94,VWS V13.01,2013-04-13 03:44:00,
2013-04-12 23:49:00,36.4,34.6,29.71,WSW,254,8.0,13.0,93,0.00,,,0.94,VWS V13.01,2013-04-13 03:49:00,
2013-04-12 23:55:00,36.3,34.5,29.71,West,260,7.0,11.0,93,0.00,,,0.94,VWS V13.01,2013-04-13 03:55:00,